Regional Weather Roundup
Issued by NWS Glasgow, MT

Home | Current Version | Previous Version | Text Only | Print | Product List | Glossary On
Versions: 1 2 3 4 5 6 7 8 9 10 11 12 13 14 15 16 17 18 19 20 21 22 23 24 25 26 27 28 29 30 31 32 33 34 35 36 37 38 39 40 41 42 43 44 45 46 47 48 49 50
000
ASUS45 KGGW 130915
RWRGGW
HOURLY REGIONAL WEATHER ROUNDUP FOR NORTHEAST MONTANA
NATIONAL WEATHER SERVICE GLASGOW MONTANA
200 AM MST WED DEC 13 2017

NOTE: "FAIR" INDICATES FEW OR NO CLOUDS BELOW 12,000 FEET WITH NO
SIGNIFICANT WEATHER AND/OR OBSTRUCTIONS TO VISISBILITY.

NORTHEAST MONTANA


CITY           SKY/WX    TMP DP  RH WIND       PRES   REMARKS
GLASGOW        CLEAR     35  23  61 NW12G21   30.04R
PLENTYWOOD       N/A     34  28  79 NW25G38     N/A
WOLF POINT     CLEAR     38  26  62 NW17      30.02R
JORDAN           N/A     37  20  50 NW14      30.07F
WINNETT          N/A     31  16  54 S13G26      N/A
SIDNEY         CLEAR     38  27  64 NW24G32   29.93R
GLENDIVE       CLEAR     38  24  57 NW23G30   29.99R
MALTA            N/A     34  21  59 W12         N/A

FORT PECK REPORTS


CITY           SKY/WX    TMP DP  RH WIND       PRES   REMARKS
FORT PECK        N/A     39  26  59 W22G35      N/A
THE PINES        N/A     40  22  48 NW12G20     N/A

SOUTHEAST MONTANA


CITY           SKY/WX    TMP DP  RH WIND       PRES   REMARKS
BILLINGS       CLEAR     42  13  30 NW15      30.18R
MILES CITY     CLEAR     38  20  48 W13       30.09R
BAKER          CLEAR     38  25  59 NW22G36   29.95R
LIVINGSTON     CLOUDY    34  10  37 W3        30.25S

CENTRAL MONTANA


CITY           SKY/WX    TMP DP  RH WIND       PRES   REMARKS
HAVRE          CLEAR     27  19  72 SW10      30.19R
LEWISTOWN      CLEAR     31  18  58 W8        30.21R
GREAT FALLS    CLOUDY    29  12  49 S6        30.25R
CUT BANK       CLEAR     26  13  57 NW13      30.23F
HELENA         CLOUDY    21  16  81 CALM      30.28S
BUTTE          CLOUDY    26  19  74 CALM      30.28F
BOZEMAN        CLOUDY    20  16  84 SW7       30.28F

WESTERN MONTANA


CITY           SKY/WX    TMP DP  RH WIND       PRES   REMARKS
MISSOULA       CLOUDY    20  17  88 CALM      30.36F
KALISPELL      NOT AVBL

NORTH DAKOTA


CITY           SKY/WX    TMP DP  RH WIND       PRES   REMARKS
WILLISTON      CLEAR     37  28  70 NW22      29.90R
DICKINSON      CLEAR     37  25  61 NW22G31   29.82R
MINOT          CLEAR     37  29  72 W26G37    29.70R
BISMARCK       MOCLDY    43  30  60 NW26G40   29.71R

SOUTHERN SASKATCHEWAN


CITY           SKY/WX    TMP DP  RH WIND       PRES   REMARKS
REGINA         CLEAR     32  28  86 NW18      29.89
ESTEVAN        PTCLDY    34  28  80 NW20G26   29.82R
SWIFT CURRENT  CLEAR     30  25  80 W13G18    30.04R




USA.gov is the U.S. government's official web portal to all federal, state and local government web resources and services.